7 * 24
多渠道服务支持
STARLINK-37188(NORAD编号68404)是SpaceX星链互联网卫星星座中的一颗卫星,归属第二代星链网络布局,运行于近地轨道,主要为全球提供低延迟高速互联网接入服务。该卫星由SpaceX猎鹰9号火箭执行发射任务,采用星链卫星标准设计,配备星间激光通信链路,支持移动网络覆盖与大容量数据传输,服务海事、航空及偏远地区网络需求,是SpaceX大规模部署星链星座的组成部分,助力构建全球卫星互联网基础设施。
美国
(US)
| 数据来源 | 国际轨道数据 |
| 星历时间: | 2026-04-14T20:29:31+0800 4小时前 查看轨道信息 |
| 半长轴: | 6706.16km |
| 偏心率: | 0.0001214 |
| 轨道倾角: | 97.284° |
| 近地点辐角 | 70.964° |
| 升交点赤经 | 246.093° |
| 平近点角 | 289.176° |
| 近地点: | 327.208km |
| 远地点: | 328.838km |
| 周期: | 91.090分钟 |
| 每日圈数: | 15.808548 |